Weather History for Wayne, NE

Change the Weather History Date:

Wednesday, November 30, 2011

  Actual Average (KOFK) Record (KOFK)
Temperature  
Mean Temperature 36 °F 29 °F  
Max Temperature 50 °F 39 °F 68 °F (1995)
Min Temperature 23 °F 19 °F -15 °F (1964)
Degree Days  
Heating Degree Days 28 36  
Month to date heating degree days 858  
Since 1 July heating degree days 1445  
Cooling Degree Days 0 0  
Month to date cooling degree days 0  
Year to date cooling degree days 915  
Moisture  
Dew Point 20 °F    
Average Humidity 54    
Maximum Humidity 69    
Minimum Humidity 40    
Precipitation  
Precipitation 0.00 in 0.04 in 1.38 in (1981)
Month to date precipitation 1.37  
Year to date precipitation 26.66  
Snow  
Snow 0.00 in 0.20 in - ()
Month to date snowfall 4.1  
Since 1 July snowfall 4.9  
Snow Depth -    
Sea Level Pressure  
Sea Level Pressure 29.92 in    
Wind  
Wind Speed 10 mph (South)    
Max Wind Speed 20 mph    
Max Gust Speed 23 mph    
Visibility 10 miles    
Events      
T = Trace of Precipitation, MM = Missing Value Source: NWS Daily Summary

Daily Weather History Graph

Daily Weather History Graph

Search for Another Location

Airport:

Trip Planner

Search our weather history database for the weather conditions in past years. The results will help you decide how hot, cold, wet, or windy it might be!

Date:

Astronomy

Nov. 30, 2011 Rise Set
Actual Time 7:35 AM CST 4:57 PM CST
Civil Twilight 7:04 AM CST 5:28 PM CST
Nautical Twilight 6:29 AM CST 6:03 PM CST
Astronomical Twilight 5:56 AM CST 6:36 PM CST
Moon 11:51 AM CST 10:59 PM CST
Length of Visible Light 10h 23m
Length of Day
9h 21m
Waxing Crescent, 34% of the Moon is Illuminated
Nov 30
Waxing Crescent
Dec 2
First Quarter
Dec 10
Full
Dec 17
Last Quarter
Dec 24
New

Hourly Weather History & Observations

Time (CST) Temp. Windchill Dew Point Humidity Pressure Visibility Wind Dir Wind Speed Gust Speed Precip Events Conditions
12:15 AM 26.6 °F 17.5 °F 8.6 °F 47% 30.12 in 10.0 mi South 9.2 mph - N/A   Clear
12:35 AM 23.0 °F 13.9 °F 8.6 °F 54% 30.10 in 10.0 mi South 8.1 mph - N/A   Clear
12:55 AM 24.8 °F 17.9 °F 8.6 °F 50% 30.10 in 10.0 mi South 5.8 mph - N/A   Clear
1:15 AM 23.0 °F 17.0 °F 8.6 °F 54% 30.08 in 10.0 mi South 4.6 mph - N/A   Clear
1:55 AM 23.0 °F 14.7 °F 10.4 °F 59% 30.07 in 10.0 mi South 6.9 mph - N/A   Clear
2:15 AM 23.0 °F 15.8 °F 10.4 °F 59% 30.06 in 10.0 mi South 5.8 mph - N/A   Clear
2:35 AM 23.0 °F 12.4 °F 12.2 °F 63% 30.05 in 10.0 mi South 10.4 mph - N/A   Clear
2:55 AM 23.0 °F 12.4 °F 12.2 °F 63% 30.05 in 10.0 mi South 10.4 mph - N/A   Clear
3:15 AM 26.6 °F 18.2 °F 14.0 °F 59% 30.04 in 10.0 mi South 8.1 mph - N/A   Clear
3:35 AM 26.6 °F 16.8 °F 14.0 °F 59% 30.02 in 10.0 mi South 10.4 mph - N/A   Clear
3:55 AM 26.6 °F 18.2 °F 14.0 °F 59% 30.01 in 10.0 mi South 8.1 mph - N/A   Clear
4:15 AM 26.6 °F - 14.0 °F 59% 30.00 in 10.0 mi Calm Calm - N/A   Clear
4:35 AM 28.4 °F - 14.0 °F 55% 30.01 in 10.0 mi Calm Calm - N/A   Clear
4:55 AM 23.0 °F - 14.0 °F 68% 30.01 in 10.0 mi Calm Calm - N/A   Clear
5:15 AM 26.6 °F 22.6 °F 15.8 °F 64% 29.99 in 10.0 mi South 3.5 mph - N/A   Clear
5:35 AM 26.6 °F 21.2 °F 15.8 °F 64% 29.98 in 10.0 mi SW 4.6 mph - N/A   Clear
6:15 AM 28.4 °F 20.4 °F 17.6 °F 64% 29.97 in 10.0 mi South 8.1 mph - N/A   Clear
6:35 AM 28.4 °F 20.4 °F 17.6 °F 64% 29.96 in 10.0 mi South 8.1 mph - N/A   Clear
6:55 AM 26.6 °F 18.2 °F 17.6 °F 69% 29.96 in 10.0 mi South 8.1 mph - N/A   Clear
7:15 AM 28.4 °F 19.7 °F 17.6 °F 64% 29.95 in 10.0 mi South 9.2 mph - N/A   Clear
7:35 AM 28.4 °F 18.0 °F 17.6 °F 64% 29.94 in 10.0 mi South 12.7 mph - N/A   Clear
8:35 AM 32.0 °F 21.6 °F 19.4 °F 60% 29.94 in 10.0 mi SSW 15.0 mph - N/A   Clear
8:55 AM 33.8 °F 24.3 °F 21.2 °F 60% 29.93 in 10.0 mi SSW 13.8 mph - N/A   Clear
9:15 AM 33.8 °F 23.9 °F 21.2 °F 60% 29.93 in 10.0 mi SSW 15.0 mph - N/A   Clear
9:35 AM 35.6 °F 26.2 °F 21.2 °F 56% 29.92 in 10.0 mi SSW 15.0 mph - N/A   Clear
9:55 AM 37.4 °F 28.2 °F 21.2 °F 52% 29.92 in 10.0 mi SSW 16.1 mph - N/A   Clear
10:15 AM 37.4 °F 27.5 °F 21.2 °F 52% 29.91 in 10.0 mi SSW 18.4 mph - N/A   Clear
10:35 AM 39.2 °F 29.8 °F 23.0 °F 52% 29.91 in 10.0 mi SSW 18.4 mph - N/A   Clear
10:55 AM 42.8 °F 34.5 °F 24.8 °F 49% 29.90 in 10.0 mi SSW 18.4 mph 23.0 mph N/A   Clear
11:15 AM 42.8 °F 34.5 °F 24.8 °F 49% 29.89 in 10.0 mi SSW 18.4 mph 21.9 mph N/A   Clear
11:55 AM 44.6 °F 36.6 °F 26.6 °F 49% 29.86 in 10.0 mi SW 19.6 mph - N/A   Clear
12:15 PM 44.6 °F 37.4 °F 26.6 °F 49% 29.85 in 10.0 mi SSW 16.1 mph - N/A   Clear
12:35 PM 44.6 °F 37.2 °F 26.6 °F 49% 29.84 in 10.0 mi SSW 17.3 mph - N/A   Clear
12:55 PM 44.6 °F 37.4 °F 26.6 °F 49% 29.83 in 10.0 mi SSW 16.1 mph - N/A   Clear
1:15 PM 46.4 °F 41.1 °F 26.6 °F 46% 29.83 in 10.0 mi SSW 11.5 mph - N/A   Clear
1:35 PM 46.4 °F 40.1 °F 26.6 °F 46% 29.82 in 10.0 mi SSW 15.0 mph 18.4 mph N/A   Clear
1:55 PM 50.0 °F - 28.4 °F 43% 29.81 in 10.0 mi SSW 18.4 mph - N/A   Clear
2:15 PM 50.0 °F - 26.6 °F 40% 29.81 in 10.0 mi SSW 19.6 mph - N/A   Clear
2:35 PM 50.0 °F - 26.6 °F 40% 29.81 in 10.0 mi SSW 18.4 mph - N/A   Clear
2:55 PM 50.0 °F - 26.6 °F 40% 29.80 in 10.0 mi South 16.1 mph 23.0 mph N/A   Clear
3:15 PM 50.0 °F - 26.6 °F 40% 29.80 in 10.0 mi SSW 17.3 mph - N/A   Clear
3:35 PM 50.0 °F - 26.6 °F 40% 29.80 in 10.0 mi South 13.8 mph - N/A   Clear
3:55 PM 50.0 °F - 26.6 °F 40% 29.80 in 10.0 mi South 11.5 mph - N/A   Clear
4:15 PM 50.0 °F - 26.6 °F 40% 29.80 in 10.0 mi South 12.7 mph - N/A   Clear
4:55 PM 46.4 °F 42.4 °F 26.6 °F 46% 29.81 in 10.0 mi South 8.1 mph - N/A   Clear
5:35 PM 44.6 °F 40.7 °F 26.6 °F 49% 29.82 in 10.0 mi South 6.9 mph - N/A   Clear
5:55 PM 44.6 °F 40.7 °F 26.6 °F 49% 29.83 in 10.0 mi South 6.9 mph - N/A   Clear
6:15 PM 41.0 °F 37.1 °F 24.8 °F 53% 29.84 in 10.0 mi South 5.8 mph - N/A   Clear
6:35 PM 37.4 °F 31.4 °F 23.0 °F 56% 29.85 in 10.0 mi South 8.1 mph - N/A   Clear
6:55 PM 37.4 °F 33.8 °F 23.0 °F 56% 29.85 in 10.0 mi South 4.6 mph - N/A   Clear
7:35 PM 37.4 °F 32.1 °F 24.8 °F 60% 29.86 in 10.0 mi South 6.9 mph - N/A   Clear
8:35 PM 39.2 °F 35.9 °F 26.6 °F 61% 29.89 in 10.0 mi South 4.6 mph - N/A   Clear
8:55 PM 37.4 °F - 26.6 °F 65% 29.90 in 10.0 mi Calm Calm - N/A   Clear
9:15 PM 39.2 °F 37.0 °F 26.6 °F 61% 29.91 in 10.0 mi SW 3.5 mph - N/A   Clear
9:35 PM 37.4 °F 32.8 °F 26.6 °F 65% 29.92 in 10.0 mi South 5.8 mph - N/A   Clear
9:55 PM 37.4 °F 32.1 °F 26.6 °F 65% 29.92 in 10.0 mi South 6.9 mph - N/A   Clear
10:15 PM 35.6 °F 31.7 °F 26.6 °F 70% 29.93 in 10.0 mi South 4.6 mph - N/A   Clear
10:35 PM 35.6 °F 32.8 °F 26.6 °F 70% 29.94 in 10.0 mi WNW 3.5 mph - N/A   Clear
10:55 PM 35.6 °F - 26.6 °F 70% 29.95 in 10.0 mi Calm Calm - N/A   Clear
11:15 PM 35.6 °F - 26.6 °F 70% 29.96 in 10.0 mi Calm Calm - N/A   Clear
11:35 PM 33.8 °F - 24.8 °F 70% 29.96 in 10.0 mi Calm Calm - N/A   Clear
11:55 PM 33.8 °F 30.8 °F 26.6 °F 75% 29.98 in 10.0 mi NW 3.5 mph - N/A   Clear